Presure
184 182 131 147 119 139 136 143 144 141 153 161 160 147 174 163 132 150 154 97 164 174 125 135 126 128 106 96 94 111 107 116 125 130 139 136 158 137 195 195 137 141 111
172 182 136 139 93 136 140 141 142 143 142 152 141 165 140 175 165 146 132 160 141 169 154 158 166 145 125 96 147 118 107 121 129 143 145 148 135 99 132 156 143 131 119
161 163 180 184 158 149 140 140 138 136 143 141 150 157 164 139 174 164 155 132 151 137 167 170 152 147 137 102 147 100 147 129 146 163 161 128 143 148 107 104 134 109 131
110 129 167 176 186 149 152 137 135 135 133 139 135 155 153 135 147 167 166 162 146 157 151 151 157 165 166 165 97 160 157 166 163 158 154 138 151 135 155 124 133 107 119
180 94 116 165 171 187 178 155 130 141 137 120 141 146 103 143 139 165 165 171 163 153 145 147 158 154 149 149 149 142 165 163 159 132 138 139 132 132 130 130 137 140 131
191 183 97 97 171 169 185 130 148 129 132 123 133 142 140 146 146 110 160 170 171 167 160 148 135 153 158 160 155 150 153 154 148 147 147 152 151 136 126 126 128 139 122
189 193 119 176 164 99 168 179 141 135 129 134 122 133 139 144 149 148 163 156 167 117 169 169 151 134 137 151 156 155 152 145 144 142 148 148 141 129 137 109 132 151 156
210 198 188 196 184 169 169 168 175 176 136 155 152 136 135 138 150 150 145 111 154 158 144 168 172 138 141 139 144 146 141 141 141 140 154 141 132 160 111 92 123 141 130
199 209 216 192 193 191 113 138 137 163 176 172 159 136 134 132 139 143 151 139 155 151 150 155 164 168 166 159 142 139 106 111 163 164 161 151 95 99 94 123 125 123 152
217 209 197 207 217 193 190 181 133 101 177 186 136 149 137 133 121 129 140 156 143 121 152 152 156 151 158 168 163 164 167 164 159 153 98 93 134 125 103 121 103 159 147
201 234 125 217 189 215 190 194 146 164 117 169 181 138 148 136 137 137 133 139 155 151 150 140 151 156 147 144 148 138 102 118 147 134 120 130 129 126 124 107 145 164 141
159 159 156 148 184 213 216 196 224 147 130 140 153 174 161 130 138 136 138 138 143 153 151 145 125 144 149 160 143 148 152 151 114 146 124 111 123 133 128 141 144 144 172
226 102 111 238 221 226 206 218 194 218 181 137 163 154 179 163 140 140 137 140 139 143 148 150 146 149 141 132 132 129 127 138 119 130 129 131 121 126 129 149 142 158 141
237 208 77 244 285 265 228 213 204 201 192 184 129 179 156 188 153 93 145 140 145 140 146 128 123 126 127 118 137 138 135 135 132 144 109 111 104 170 132 164 137 145 162
291 194 96 121 237 81 88 92 197 180 226 189 185 182 173 180 140 167 144 146 138 139 135 137 140 133 134 135 138 138 144 143 137 139 132 144 139 146 144 157 156 135 182
308 143 115 268 248 288 120 144 137 221 189 219 190 186 190 175 179 97 169 126 139 141 142 138 143 137 141 138 147 149 149 146 147 144 143 136 139 96 170 172 172 190 171
286 196 414 131 302 177 242 99 184 218 173 193 212 185 186 188 182 183 177 135 172 142 135 140 164 141 153 143 142 144 140 130 149 123 122 167 119 173 188 183 163 162 107
387 393 396 419 374 128 243 173 210 186 208 198 199 185 186 178 170 164 193 179 180 174 135 140 142 132 141 140 144 149 142 151 157 166 124 148 181 139 153 188 115 148 175
380 379 382 401 435 295 285 269 189 203 178 181 225 214 197 191 173 178 167 162 178 176 171 159 154 138 133 139 117 159 141 150 128 163 171 177 138 149 116 145 181 122 100
382 353 387 388 426 309 270 250 220 208 168 212 186 214 197 202 188 178 184 173 171 177 171 171 158 164 162 158 154 148 145 167 156 158 175 162 171 167 118 151 170 184 93
343 337 367 389 296 414 260 259 215 214 205 134 205 193 215 169 190 197 173 182 174 161 167 165 165 145 163 161 162 160 170 170 177 164 167 173 159 183 98 193 206 136 94
357 343 430 398 426 243 141 192 214 205 212 178 135 223 177 165 208 200 171 181 172 161 168 134 163 145 171 156 169 159 166 168 176 123 164 166 170 172 191 189 168 150 151
348 367 366 401 330 216 265 232 223 218 212 204 199 192 147 202 205 200 181 173 171 166 153 161 174 168 159 168 172 169 154 173 166 172 173 152 137 173 171 119 149 145 141
338 330 329 399 221 263 247 224 219 213 207 202 191 195 196 163 201 208 148 168 171 173 171 155 179 147 177 170 168 164 159 173 155 163 172 177 177 192 183 149 142 161 143
337 322 316 373 256 258 222 230 226 214 208 193 206 200 220 183 206 207 167 130 147 171 196 191 163 164 170 162 132 163 157 171 174 165 158 149 192 171 176 175 139 155 135
329 301 300 301 250 251 245 235 224 227 223 208 184 204 203 191 190 193 191 163 183 142 148 168 143 154 157 151 167 164 174 173 177 168 170 173 140 185 172 139 135 172 139
Wind_Speed
47 45 39 41 34 38 34 34 31 27 27 29 27 26 26 29 24 27 25 20 25 22 20 29 25 26 16 12 10 14 13 16 20 21 21 20 20 19 32 34 20 22 18
46 46 43 42 28 40 39 37 36 32 29 29 28 29 28 27 31 30 24 28 27 27 31 29 26 30 26 13 29 20 15 21 24 24 24 23 22 14 18 21 21 22 21
49 47 47 49 47 47 42 40 36 34 33 31 31 31 32 30 31 32 34 26 32 28 27 26 32 32 30 17 31 15 28 25 26 22 22 21 23 22 19 19 23 21 24
33 42 49 48 50 44 50 42 39 37 35 33 32 34 33 32 32 33 34 34 35 34 34 33 31 29 29 29 18 28 26 26 25 24 24 24 24 24 24 23 25 24 26
55 27 37 51 49 53 53 53 40 44 39 36 36 36 31 34 34 34 34 35 36 37 35 32 34 34 33 32 31 25 28 26 26 25 26 26 26 25 25 26 28 29 28
60 61 36 34 54 53 55 45 50 41 41 37 39 39 37 37 37 30 35 36 37 38 37 37 32 34 34 33 33 32 30 28 29 29 28 28 29 28 26 26 27 32 29
63 64 45 61 58 33 56 57 48 46 43 44 43 40 39 40 39 38 38 37 36 31 38 39 40 33 32 35 35 33 31 30 29 30 31 31 30 28 31 26 31 38 39
67 68 66 71 67 62 61 59 58 57 52 54 54 45 41 41 43 41 38 32 38 38 36 39 41 35 37 34 36 35 33 32 32 32 34 30 28 35 27 26 32 36 35
68 69 69 72 71 71 38 49 52 57 60 64 58 48 45 43 40 42 42 41 41 39 39 37 39 42 41 40 38 36 25 27 38 38 36 35 25 28 30 31 33 37 38
65 71 73 74 76 73 72 67 46 32 63 68 54 58 49 46 44 44 43 45 43 39 41 41 41 38 40 44 42 42 41 40 38 38 28 27 29 29 35 33 40 42 40
66 66 42 75 75 77 73 74 56 67 40 65 66 55 58 52 49 48 45 44 49 46 44 41 44 43 43 42 44 37 28 32 39 33 32 32 30 31 34 42 44 43 44
46 50 42 47 63 81 79 80 68 56 52 54 55 65 61 48 52 50 49 47 49 51 47 46 43 44 45 48 44 41 42 41 35 40 32 35 34 36 41 36 40 42 43
62 31 35 73 68 83 81 78 73 68 77 56 72 66 68 61 57 55 51 51 49 50 50 50 48 50 48 47 41 38 37 41 33 37 37 36 35 38 36 43 41 42 43
65 58 22 73 79 78 85 81 80 79 80 81 52 73 67 70 63 34 60 55 57 52 55 47 46 45 45 36 49 46 44 42 42 46 39 38 43 55 35 52 45 40 45
70 58 22 37 67 24 24 28 80 77 74 82 82 77 72 70 49 60 61 60 57 55 53 53 55 53 51 51 52 48 51 49 46 48 45 49 42 47 48 53 50 55 43
68 40 31 71 68 71 39 43 46 74 79 80 84 78 74 72 68 40 59 46 62 60 60 57 60 56 58 55 60 60 57 56 57 53 51 44 46 38 56 56 55 49 47
61 39 44 54 82 59 80 33 74 81 83 74 82 79 79 73 67 64 63 64 65 65 57 62 65 60 66 58 60 62 54 41 62 42 44 64 42 61 58 58 55 51 44
36 36 36 46 72 51 91 66 99 77 88 86 88 80 81 75 73 71 64 63 64 66 56 65 66 53 62 60 65 68 58 66 70 67 48 60 61 52 56 60 41 60 47
33 34 36 38 52 91 91 95 81 96 67 80 77 88 81 78 74 72 73 71 64 65 67 64 66 64 60 61 48 72 65 67 51 67 63 61 58 58 42 47 44 39 48
31 28 37 34 49 92 105 101 99 100 66 96 81 80 77 76 75 71 68 67 69 66 68 68 74 72 73 76 70 73 64 77 71 66 62 68 65 60 50 55 47 47 40
22 28 35 37 43 83 102 106 102 100 102 48 91 87 61 66 74 70 71 66 68 74 71 73 72 67 74 76 78 80 77 75 65 70 69 68 66 64 52 62 62 32 44
21 25 25 27 51 87 51 71 105 98 101 75 54 76 74 67 68 68 73 67 71 76 71 48 70 57 70 70 73 65 68 75 68 54 68 70 67 63 69 68 37 49 53
11 8 7 21 37 73 106 107 109 108 99 91 82 84 50 69 69 69 71 72 74 76 71 74 70 71 71 76 76 84 71 76 73 73 72 61 61 65 52 51 47 55 63
3 17 14 16 80 104 108 105 107 103 95 92 81 80 77 69 65 60 51 78 76 73 66 70 70 55 71 78 82 80 66 76 51 67 73 74 72 77 62 49 61 66 66
20 26 19 4 101 106 86 107 105 106 99 83 79 81 68 80 62 62 79 55 61 78 61 64 77 76 78 77 56 69 66 79 78 71 68 51 78 39 50 43 67 64 72
33 47 38 59 97 101 111 106 101 96 92 86 79 76 72 78 76 70 72 68 77 59 61 73 51 57 56 56 79 77 83 82 81 63 58 70 56 73 53 64 69 59 74
Wind_Direction
242 240 239 237 247 243 242 245 243 236 243 243 242 235 232 229 230 235 235 244 235 229 237 238 243 247 241 244 253 254 256 267 274 276 267 267 260 267 260 266 268 269 271
245 238 240 240 258 242 240 240 245 242 235 239 240 241 233 234 232 235 232 231 238 230 237 237 236 244 248 254 246 260 260 268 273 261 258 260 266 277 270 269 269 269 271
239 239 241 236 236 238 240 238 236 234 240 235 236 240 238 232 236 236 235 235 238 242 231 232 241 244 248 251 252 258 256 260 259 254 256 269 262 264 275 275 270 271 275
247 246 240 239 238 240 239 241 237 234 230 232 234 237 236 236 236 238 239 238 240 236 239 241 241 239 237 240 259 245 247 246 249 253 256 262 266 267 275 278 271 281 278
242 249 246 239 236 238 235 240 237 238 236 238 236 238 248 240 234 241 240 240 241 241 244 242 242 244 247 250 251 251 246 249 253 259 262 263 265 267 270 273 280 282 281
241 239 251 250 236 236 238 244 236 237 237 243 234 237 235 236 240 246 243 242 244 245 245 246 241 249 248 248 249 252 253 253 257 261 263 265 267 272 273 276 282 291 281
242 238 247 239 239 245 234 236 243 242 241 238 240 234 235 241 240 241 246 243 244 247 250 249 247 244 246 254 253 254 254 254 255 259 263 263 266 274 278 279 289 292 294
238 238 237 237 234 237 234 233 234 233 243 239 236 239 235 237 244 242 241 247 245 247 249 252 254 254 248 249 253 255 254 255 258 260 271 273 274 274 272 269 281 298 300
239 236 237 239 235 233 242 236 240 230 233 236 236 240 238 236 240 245 244 245 248 247 249 251 254 255 257 258 253 252 265 264 267 273 272 270 268 269 267 291 294 292 300
240 236 240 238 238 233 234 232 239 252 230 236 245 237 242 240 244 242 245 245 247 247 250 254 256 253 257 262 263 261 263 262 265 268 269 264 278 282 271 287 272 296 301
244 243 248 232 241 234 235 232 235 236 244 232 234 247 238 245 243 245 246 246 248 248 249 251 256 258 256 256 259 263 261 263 265 269 271 273 279 280 282 277 286 295 289
251 243 248 246 236 234 230 231 227 233 240 231 237 232 239 252 248 249 249 248 251 250 250 251 254 255 257 263 261 259 260 261 263 268 273 272 277 284 281 289 292 301 297
246 256 264 234 238 228 232 226 232 223 230 235 236 243 232 240 246 248 252 251 252 253 254 252 253 255 257 263 263 264 267 264 269 273 275 277 278 280 279 289 296 291 296
247 248 229 234 240 225 223 225 226 227 227 229 229 231 242 233 242 252 245 252 252 252 254 258 263 264 264 265 267 268 268 269 271 273 267 271 273 282 273 289 284 292 293
259 256 247 255 241 239 240 239 230 236 223 229 230 232 232 232 240 239 246 248 255 253 256 257 257 262 265 266 269 270 271 273 273 273 273 279 282 287 280 293 288 282 293
268 257 262 242 240 226 268 247 235 222 233 227 229 231 229 236 231 244 237 241 253 253 254 257 258 263 265 267 268 269 271 275 274 278 281 284 272 281 286 289 288 287 290
270 256 243 250 223 241 207 256 234 215 233 234 222 231 229 228 228 233 233 251 241 252 258 258 249 263 258 267 272 273 272 270 274 265 264 279 265 286 282 288 291 286 300
288 269 254 240 218 261 208 232 219 230 215 229 228 232 228 231 231 234 232 233 237 241 256 259 260 266 266 270 271 270 265 268 272 273 263 276 282 284 286 288 296 280 290
278 266 253 245 228 203 196 198 217 220 222 233 220 220 224 226 231 228 234 238 235 238 243 247 256 266 259 264 257 265 270 274 267 273 277 280 269 272 285 286 299 290 290
283 259 248 238 228 197 195 200 208 216 228 221 230 219 222 224 228 228 227 230 234 235 240 244 252 251 255 261 263 270 272 267 276 273 277 279 282 284 288 284 295 293 290
256 250 243 229 239 201 192 193 210 210 216 246 218 226 219 231 224 224 230 228 233 243 240 242 247 262 253 258 261 267 265 268 270 273 277 277 282 283 290 286 294 280 292
259 254 241 230 223 194 254 212 209 217 213 227 245 210 230 231 223 222 230 227 232 242 240 256 249 258 250 259 258 265 264 268 268 280 275 279 282 285 286 288 277 265 270
298 63 55 256 218 201 189 200 203 211 215 219 217 224 227 225 219 220 224 229 232 238 252 250 243 247 256 255 255 259 269 266 274 272 273 277 283 285 279 271 262 265 272
125 166 193 265 191 187 192 202 206 211 216 217 224 220 221 232 219 217 242 231 233 234 240 256 241 254 248 254 260 270 276 268 276 278 278 279 281 281 288 254 262 279 273
149 142 183 291 189 188 208 198 201 210 213 223 208 214 210 226 207 208 237 242 253 235 230 236 247 247 248 263 258 270 263 268 267 271 273 271 275 288 284 282 265 278 277
161 174 174 194 192 189 192 200 205 203 204 212 223 209 210 219 220 215 218 238 227 253 246 249 259 266 260 259 261 264 264 270 272 275 273 275 266 282 279 271 276 285 275